Time,TemperatureF,DewpointF,PressureIn,WindDirection,WindDirectionDegrees,WindSpeedMPH,WindSpeedGustMPH,Humidity,HourlyPrecipIn,Conditions,Clouds,dailyrainin,SoftwareType,DateUTC
2013-05-23 00:00:00,54.9,53.2,29.78,ENE,74,0.0,1.0,94,0.00,,,0.00,meteohub,2013-05-23 05:00:00,
2013-05-23 00:05:00,54.7,53.1,29.78,ENE,74,0.0,0.0,94,0.00,,,0.00,meteohub,2013-05-23 05:05:00,
2013-05-23 00:10:00,54.9,53.2,29.78,NE,54,0.0,0.0,94,0.00,,,0.00,meteohub,2013-05-23 05:10:00,
2013-05-23 00:15:00,54.9,53.2,29.78,NE,54,0.0,2.0,94,0.00,,,0.00,meteohub,2013-05-23 05:15:00,
2013-05-23 00:20:00,54.9,53.2,29.78,NE,54,0.0,6.0,94,0.00,,,0.00,meteohub,2013-05-23 05:20:00,
2013-05-23 00:25:00,54.9,53.2,29.78,ESE,111,0.0,6.0,94,0.00,,,0.00,meteohub,2013-05-23 05:25:00,
2013-05-23 00:30:00,54.7,53.1,29.78,NE,53,0.0,6.0,94,0.00,,,0.00,meteohub,2013-05-23 05:30:00,
2013-05-23 00:35:00,54.7,53.1,29.78,East,95,0.0,4.0,94,0.00,,,0.00,meteohub,2013-05-23 05:35:00,
2013-05-23 00:40:00,54.7,53.1,29.78,East,84,0.0,2.0,94,0.00,,,0.00,meteohub,2013-05-23 05:40:00,
2013-05-23 00:45:00,54.9,53.2,29.78,East,84,0.0,2.0,94,0.00,,,0.00,meteohub,2013-05-23 05:45:00,
2013-05-23 00:50:00,54.7,53.1,29.78,NE,35,2.0,3.0,94,0.00,,,0.00,meteohub,2013-05-23 05:50:00,
2013-05-23 00:55:00,54.7,52.7,29.78,NNE,24,0.0,3.0,93,0.00,,,0.00,meteohub,2013-05-23 05:55:00,
2013-05-23 01:01:00,54.7,52.7,29.78,North,5,0.0,3.0,93,0.00,,,0.00,meteohub,2013-05-23 06:01:00,
2013-05-23 01:06:00,54.7,52.7,29.79,North,5,0.0,3.0,93,0.00,,,0.00,meteohub,2013-05-23 06:06:00,
2013-05-23 01:11:00,54.7,52.7,29.79,North,9,0.0,2.0,93,0.00,,,0.00,meteohub,2013-05-23 06:11:00,
2013-05-23 01:16:00,54.7,52.7,29.79,ENE,57,0.0,2.0,93,0.00,,,0.00,meteohub,2013-05-23 06:16:00,
2013-05-23 01:21:00,54.7,52.7,29.79,NE,51,0.0,2.0,93,0.00,,,0.00,meteohub,2013-05-23 06:21:00,
2013-05-23 01:26:00,54.7,52.7,29.79,NE,51,0.0,1.0,93,0.00,,,0.00,meteohub,2013-05-23 06:26:00,
2013-05-23 01:31:00,54.7,53.1,29.79,NE,51,0.0,1.0,94,0.00,,,0.00,meteohub,2013-05-23 06:31:00,
2013-05-23 01:36:00,54.7,53.1,29.79,NE,51,0.0,1.0,94,0.00,,,0.00,meteohub,2013-05-23 06:36:00,
2013-05-23 01:41:00,54.5,52.9,29.79,ENE,78,0.0,1.0,94,0.00,,,0.00,meteohub,2013-05-23 06:41:00,
2013-05-23 01:46:00,54.3,52.7,29.79,ENE,74,0.0,2.0,94,0.00,,,0.00,meteohub,2013-05-23 06:46:00,
2013-05-23 01:51:00,54.3,52.7,29.79,ENE,74,0.0,2.0,94,0.00,,,0.00,meteohub,2013-05-23 06:51:00,
2013-05-23 01:56:00,54.3,52.7,29.79,ENE,75,0.0,2.0,94,0.00,,,0.00,meteohub,2013-05-23 06:56:00,
2013-05-23 02:01:00,54.3,52.9,29.80,ENE,75,0.0,2.0,95,0.00,,,0.00,meteohub,2013-05-23 07:01:00,
2013-05-23 02:06:00,54.1,52.5,29.80,ENE,75,0.0,1.0,94,0.00,,,0.00,meteohub,2013-05-23 07:06:00,
2013-05-23 02:11:00,54.1,52.7,29.80,ENE,75,0.0,0.0,95,0.01,,,0.01,meteohub,2013-05-23 07:11:00,
2013-05-23 02:16:00,54.1,52.7,29.80,ENE,75,0.0,0.0,95,0.01,,,0.01,meteohub,2013-05-23 07:16:00,
2013-05-23 02:21:00,54.3,52.9,29.80,North,355,4.0,0.0,95,0.01,,,0.01,meteohub,2013-05-23 07:21:00,
2013-05-23 02:26:00,54.3,52.9,29.80,North,355,0.0,5.0,95,0.01,,,0.01,meteohub,2013-05-23 07:26:00,
2013-05-23 02:32:00,54.5,53.1,29.81,North,355,0.0,5.0,95,0.01,,,0.01,meteohub,2013-05-23 07:32:00,
2013-05-23 02:37:00,54.3,52.9,29.81,NNW,336,0.0,5.0,95,0.02,,,0.02,meteohub,2013-05-23 07:37:00,
2013-05-23 02:42:00,54.3,52.9,29.81,WSW,257,2.0,6.0,95,0.02,,,0.02,meteohub,2013-05-23 07:42:00,
2013-05-23 02:47:00,54.3,52.9,29.81,NNE,13,1.0,6.0,95,0.02,,,0.02,meteohub,2013-05-23 07:47:00,
2013-05-23 02:52:00,54.1,52.5,29.81,WSW,258,0.0,8.0,94,0.02,,,0.02,meteohub,2013-05-23 07:52:00,
2013-05-23 02:57:00,54.1,52.5,29.81,WNW,289,1.0,8.0,94,0.02,,,0.02,meteohub,2013-05-23 07:57:00,
2013-05-23 03:02:00,54.0,52.3,29.82,NNE,24,0.0,8.0,94,0.02,,,0.02,meteohub,2013-05-23 08:02:00,
2013-05-23 03:07:00,54.0,52.3,29.82,North,5,0.0,10.0,94,0.01,,,0.02,meteohub,2013-05-23 08:07:00,
2013-05-23 03:12:00,54.0,52.3,29.82,NE,55,0.0,10.0,94,0.01,,,0.02,meteohub,2013-05-23 08:12:00,
2013-05-23 03:17:00,53.8,52.2,29.82,NE,48,0.0,10.0,94,0.01,,,0.02,meteohub,2013-05-23 08:17:00,
2013-05-23 03:22:00,53.8,52.2,29.82,NNW,327,0.0,6.0,94,0.01,,,0.02,meteohub,2013-05-23 08:22:00,
2013-05-23 03:27:00,53.8,52.2,29.82,North,0,0.0,6.0,94,0.01,,,0.02,meteohub,2013-05-23 08:27:00,
2013-05-23 03:32:00,53.8,52.2,29.82,NW,315,1.0,3.0,94,0.01,,,0.02,meteohub,2013-05-23 08:32:00,
2013-05-23 03:37:00,54.0,52.5,29.83,WNW,300,1.0,4.0,95,0.00,,,0.02,meteohub,2013-05-23 08:37:00,
2013-05-23 03:42:00,53.8,52.3,29.83,NNW,340,1.0,5.0,95,0.00,,,0.02,meteohub,2013-05-23 08:42:00,
2013-05-23 03:47:00,53.8,52.2,29.83,NNW,348,0.0,6.0,94,0.00,,,0.02,meteohub,2013-05-23 08:47:00,
2013-05-23 03:52:00,53.6,52.0,29.83,WNW,294,0.0,8.0,94,0.01,,,0.03,meteohub,2013-05-23 08:52:00,
2013-05-23 03:57:00,53.6,52.0,29.83,West,272,0.0,8.0,94,0.01,,,0.03,meteohub,2013-05-23 08:57:00,
2013-05-23 04:02:00,53.4,51.8,29.84,WNW,300,0.0,8.0,94,0.01,,,0.03,meteohub,2013-05-23 09:02:00,
2013-05-23 04:07:00,53.4,51.8,29.84,West,261,0.0,6.0,94,0.01,,,0.03,meteohub,2013-05-23 09:07:00,
2013-05-23 04:12:00,53.2,51.6,29.84,NW,311,0.0,8.0,94,0.01,,,0.03,meteohub,2013-05-23 09:12:00,
2013-05-23 04:18:00,53.2,51.6,29.85,NNW,342,5.0,8.0,94,0.01,,,0.03,meteohub,2013-05-23 09:18:00,
2013-05-23 04:23:00,53.1,51.6,29.85,NW,315,0.0,8.0,95,0.01,,,0.03,meteohub,2013-05-23 09:23:00,
2013-05-23 04:28:00,53.1,51.6,29.85,WNW,303,4.0,9.0,95,0.01,,,0.03,meteohub,2013-05-23 09:28:00,
2013-05-23 04:33:00,53.1,51.6,29.86,NNW,343,1.0,9.0,95,0.02,,,0.04,meteohub,2013-05-23 09:33:00,
2013-05-23 04:38:00,53.1,51.4,29.86,NW,324,0.0,6.0,94,0.02,,,0.04,meteohub,2013-05-23 09:38:00,
2013-05-23 04:43:00,52.9,51.4,29.86,NW,319,0.0,6.0,95,0.02,,,0.04,meteohub,2013-05-23 09:43:00,
2013-05-23 04:48:00,52.7,51.1,29.86,North,0,0.0,6.0,94,0.02,,,0.05,meteohub,2013-05-23 09:48:00,
2013-05-23 04:53:00,52.3,50.7,29.86,East,98,7.0,7.0,94,0.02,,,0.05,meteohub,2013-05-23 09:53:00,
2013-05-23 04:58:00,52.2,50.5,29.87,ENE,71,1.0,10.0,94,0.02,,,0.05,meteohub,2013-05-23 09:58:00,
2013-05-23 05:03:00,52.0,50.4,29.87,NNE,29,4.0,11.0,94,0.02,,,0.05,meteohub,2013-05-23 10:03:00,
2013-05-23 05:08:00,51.8,50.2,29.87,NE,44,2.0,11.0,94,0.02,,,0.05,meteohub,2013-05-23 10:08:00,
2013-05-23 05:13:00,51.6,50.0,29.87,NE,38,0.0,11.0,94,0.02,,,0.05,meteohub,2013-05-23 10:13:00,
2013-05-23 05:18:00,51.6,50.0,29.88,South,183,0.0,11.0,94,0.03,,,0.06,meteohub,2013-05-23 10:18:00,
2013-05-23 05:23:00,51.6,50.2,29.88,NNE,31,5.0,6.0,95,0.03,,,0.06,meteohub,2013-05-23 10:23:00,
2013-05-23 05:28:00,51.6,50.2,29.88,NE,54,0.0,8.0,95,0.03,,,0.06,meteohub,2013-05-23 10:28:00,
2013-05-23 05:33:00,51.6,50.2,29.88,North,11,0.0,8.0,95,0.02,,,0.06,meteohub,2013-05-23 10:33:00,
2013-05-23 05:38:00,51.6,50.2,29.89,NNE,12,0.0,8.0,95,0.02,,,0.06,meteohub,2013-05-23 10:38:00,
2013-05-23 05:43:00,51.6,50.2,29.89,North,351,1.0,7.0,95,0.02,,,0.06,meteohub,2013-05-23 10:43:00,
2013-05-23 05:48:00,51.8,50.4,29.89,ENE,69,5.0,10.0,95,0.01,,,0.06,meteohub,2013-05-23 10:48:00,
2013-05-23 05:53:00,51.6,50.2,29.89,WSW,255,0.0,10.0,95,0.01,,,0.06,meteohub,2013-05-23 10:53:00,
2013-05-23 05:59:00,51.6,50.0,29.90,North,0,4.0,10.0,94,0.01,,,0.06,meteohub,2013-05-23 10:59:00,
2013-05-23 06:04:00,51.6,50.0,29.90,West,259,2.0,11.0,94,0.01,,,0.06,meteohub,2013-05-23 11:04:00,
2013-05-23 06:09:00,51.6,49.6,29.91,NW,323,0.0,12.0,93,0.01,,,0.06,meteohub,2013-05-23 11:09:00,
2013-05-23 06:14:00,51.4,49.5,29.91,NNW,343,0.0,12.0,93,0.00,,,0.06,meteohub,2013-05-23 11:14:00,
2013-05-23 06:19:00,51.4,49.5,29.91,ENE,65,1.0,11.0,93,0.00,,,0.06,meteohub,2013-05-23 11:19:00,
2013-05-23 06:24:00,51.4,49.8,29.91,NE,42,4.0,11.0,94,0.00,,,0.06,meteohub,2013-05-23 11:24:00,
2013-05-23 06:29:00,51.4,49.5,29.92,NNE,24,1.0,10.0,93,0.00,,,0.06,meteohub,2013-05-23 11:29:00,
2013-05-23 06:34:00,51.3,49.3,29.92,WNW,282,0.0,10.0,93,0.00,,,0.06,meteohub,2013-05-23 11:34:00,
2013-05-23 06:39:00,51.3,49.3,29.93,NNW,328,3.0,8.0,93,0.00,,,0.06,meteohub,2013-05-23 11:39:00,
2013-05-23 06:44:00,50.9,48.9,29.93,WSW,253,0.0,8.0,93,0.00,,,0.06,meteohub,2013-05-23 11:44:00,
2013-05-23 06:49:00,50.7,48.7,29.93,NE,37,3.0,14.0,93,0.00,,,0.06,meteohub,2013-05-23 11:49:00,
2013-05-23 06:54:00,50.7,48.7,29.93,NNW,335,4.0,14.0,93,0.00,,,0.06,meteohub,2013-05-23 11:54:00,
2013-05-23 06:59:00,50.7,48.7,29.93,NW,321,0.0,14.0,93,0.00,,,0.06,meteohub,2013-05-23 11:59:00,
2013-05-23 07:04:00,50.7,48.7,29.94,NNE,32,0.0,10.0,93,0.00,,,0.06,meteohub,2013-05-23 12:04:00,
2013-05-23 07:09:00,51.1,49.5,29.94,WSW,252,0.0,10.0,94,0.00,,,0.06,meteohub,2013-05-23 12:09:00,
2013-05-23 07:14:00,50.9,49.3,29.95,WNW,302,1.0,6.0,94,0.00,,,0.06,meteohub,2013-05-23 12:14:00,
2013-05-23 07:19:00,50.9,49.3,29.95,NW,321,0.0,10.0,94,0.00,,,0.06,meteohub,2013-05-23 12:19:00,
2013-05-23 07:24:00,50.5,48.6,29.96,NNW,327,3.0,10.0,93,0.00,,,0.06,meteohub,2013-05-23 12:24:00,
2013-05-23 07:30:00,50.5,48.9,29.96,West,261,4.0,11.0,94,0.00,,,0.06,meteohub,2013-05-23 12:30:00,
2013-05-23 07:35:00,50.4,48.7,29.96,NW,308,3.0,11.0,94,0.00,,,0.06,meteohub,2013-05-23 12:35:00,
2013-05-23 07:40:00,50.4,48.7,29.97,WSW,257,1.0,11.0,94,0.00,,,0.06,meteohub,2013-05-23 12:40:00,
2013-05-23 07:45:00,50.2,48.2,29.97,ENE,58,8.0,12.0,93,0.01,,,0.07,meteohub,2013-05-23 12:45:00,
2013-05-23 07:50:00,50.4,48.4,29.98,North,350,0.0,12.0,93,0.01,,,0.07,meteohub,2013-05-23 12:50:00,
2013-05-23 07:55:00,50.5,48.6,29.98,West,267,4.0,12.0,93,0.01,,,0.07,meteohub,2013-05-23 12:55:00,
2013-05-23 08:00:00,50.5,48.6,29.98,West,271,2.0,13.0,93,0.01,,,0.07,meteohub,2013-05-23 13:00:00,
2013-05-23 08:05:00,50.4,48.2,29.99,SW,230,1.0,13.0,92,0.01,,,0.07,meteohub,2013-05-23 13:05:00,
2013-05-23 08:10:00,50.4,48.2,29.99,NNW,329,0.0,12.0,92,0.01,,,0.07,meteohub,2013-05-23 13:10:00,
2013-05-23 08:15:00,50.4,48.4,29.99,West,277,5.0,12.0,93,0.01,,,0.07,meteohub,2013-05-23 13:15:00,
2013-05-23 08:20:00,50.2,48.0,29.99,West,271,11.0,13.0,92,0.01,,,0.07,meteohub,2013-05-23 13:20:00,
2013-05-23 08:25:00,49.8,47.3,30.00,NNW,332,1.0,13.0,91,0.01,,,0.07,meteohub,2013-05-23 13:25:00,
2013-05-23 08:30:00,49.6,47.5,30.00,West,277,5.0,13.0,92,0.01,,,0.07,meteohub,2013-05-23 13:30:00,
2013-05-23 08:35:00,49.6,47.7,30.01,NW,307,0.0,13.0,93,0.01,,,0.07,meteohub,2013-05-23 13:35:00,
2013-05-23 08:40:00,49.6,47.5,30.01,NNW,328,5.0,10.0,92,0.00,,,0.07,meteohub,2013-05-23 13:40:00,
2013-05-23 08:45:00,49.6,47.5,30.01,West,277,9.0,12.0,92,0.00,,,0.07,meteohub,2013-05-23 13:45:00,
2013-05-23 08:50:00,49.6,47.5,30.01,West,280,1.0,13.0,92,0.00,,,0.07,meteohub,2013-05-23 13:50:00,
2013-05-23 08:55:00,49.6,47.1,30.01,WNW,299,4.0,13.0,91,0.00,,,0.07,meteohub,2013-05-23 13:55:00,
2013-05-23 09:00:00,49.6,47.5,30.02,WNW,287,1.0,13.0,92,0.00,,,0.07,meteohub,2013-05-23 14:00:00,
2013-05-23 09:06:00,49.6,47.5,30.02,WSW,240,9.0,13.0,92,0.00,,,0.07,meteohub,2013-05-23 14:06:00,
2013-05-23 09:11:00,49.6,47.5,30.03,West,263,3.0,14.0,92,0.00,,,0.07,meteohub,2013-05-23 14:11:00,
2013-05-23 09:16:00,49.3,47.1,30.04,West,264,8.0,14.0,92,0.00,,,0.07,meteohub,2013-05-23 14:16:00,
2013-05-23 09:21:00,49.3,47.1,30.04,WSW,258,6.0,10.0,92,0.00,,,0.07,meteohub,2013-05-23 14:21:00,
2013-05-23 09:26:00,49.5,47.3,30.04,West,267,7.0,11.0,92,0.00,,,0.07,meteohub,2013-05-23 14:26:00,
2013-05-23 09:31:00,49.5,46.9,30.04,West,281,0.0,12.0,91,0.00,,,0.07,meteohub,2013-05-23 14:31:00,
2013-05-23 09:36:00,49.5,46.9,30.04,West,263,2.0,12.0,91,0.00,,,0.07,meteohub,2013-05-23 14:36:00,
2013-05-23 09:41:00,49.5,46.9,30.05,West,259,4.0,13.0,91,0.00,,,0.07,meteohub,2013-05-23 14:41:00,
2013-05-23 09:46:00,49.1,46.0,30.05,NW,306,4.0,13.0,89,0.00,,,0.07,meteohub,2013-05-23 14:46:00,
2013-05-23 09:51:00,48.9,46.0,30.06,SW,234,9.0,13.0,90,0.00,,,0.07,meteohub,2013-05-23 14:51:00,
2013-05-23 09:56:00,48.6,45.5,30.06,WNW,289,4.0,12.0,89,0.00,,,0.07,meteohub,2013-05-23 14:56:00,
2013-05-23 10:01:00,48.6,45.7,30.06,NNW,336,4.0,13.0,90,0.00,,,0.07,meteohub,2013-05-23 15:01:00,
2013-05-23 10:06:00,48.4,45.5,30.06,WSW,243,3.0,13.0,90,0.00,,,0.07,meteohub,2013-05-23 15:06:00,
2013-05-23 10:11:00,48.2,45.3,30.06,WNW,297,1.0,13.0,90,0.00,,,0.07,meteohub,2013-05-23 15:11:00,
2013-05-23 10:16:00,47.8,45.0,30.07,ENE,67,2.0,11.0,90,0.00,,,0.07,meteohub,2013-05-23 15:16:00,
2013-05-23 10:21:00,48.4,45.9,30.07,West,273,4.0,13.0,91,0.00,,,0.07,meteohub,2013-05-23 15:21:00,
2013-05-23 10:26:00,48.2,45.3,30.08,West,270,6.0,13.0,90,0.00,,,0.07,meteohub,2013-05-23 15:26:00,
2013-05-23 10:31:00,48.4,46.2,30.08,North,0,7.0,13.0,92,0.00,,,0.07,meteohub,2013-05-23 15:31:00,
2013-05-23 10:36:00,48.4,45.5,30.08,NW,311,5.0,13.0,90,0.00,,,0.07,meteohub,2013-05-23 15:36:00,
2013-05-23 10:42:00,48.4,45.3,30.08,North,355,0.0,14.0,89,0.00,,,0.07,meteohub,2013-05-23 15:42:00,
2013-05-23 10:47:00,48.4,45.0,30.08,NW,319,1.0,14.0,88,0.00,,,0.07,meteohub,2013-05-23 15:47:00,
2013-05-23 10:52:00,48.7,45.7,30.08,NW,308,2.0,13.0,89,0.00,,,0.07,meteohub,2013-05-23 15:52:00,
2013-05-23 10:57:00,48.9,45.9,30.09,NNW,341,7.0,13.0,89,0.00,,,0.07,meteohub,2013-05-23 15:57:00,
2013-05-23 11:02:00,48.7,45.3,30.08,North,355,0.0,9.0,88,0.00,,,0.07,meteohub,2013-05-23 16:02:00,
2013-05-23 11:07:00,48.9,45.1,30.09,NNE,15,0.0,9.0,87,0.00,,,0.07,meteohub,2013-05-23 16:07:00,
2013-05-23 11:12:00,48.9,45.9,30.09,NNW,338,8.0,12.0,89,0.00,,,0.07,meteohub,2013-05-23 16:12:00,
2013-05-23 11:17:00,49.3,46.2,30.09,West,275,2.0,12.0,89,0.00,,,0.07,meteohub,2013-05-23 16:17:00,
2013-05-23 11:22:00,49.1,45.7,30.10,West,275,8.0,12.0,88,0.00,,,0.07,meteohub,2013-05-23 16:22:00,
2013-05-23 11:27:00,49.1,46.0,30.10,West,273,0.0,11.0,89,0.00,,,0.07,meteohub,2013-05-23 16:27:00,
2013-05-23 11:32:00,49.3,46.2,30.11,West,276,5.0,10.0,89,0.00,,,0.07,meteohub,2013-05-23 16:32:00,
2013-05-23 11:37:00,48.7,45.3,30.11,WSW,255,6.0,14.0,88,0.00,,,0.07,meteohub,2013-05-23 16:37:00,
2013-05-23 11:42:00,48.4,44.8,30.11,West,271,9.0,14.0,87,0.00,,,0.07,meteohub,2013-05-23 16:42:00,
2013-05-23 11:47:00,48.4,45.0,30.12,West,276,4.0,14.0,88,0.00,,,0.07,meteohub,2013-05-23 16:47:00,
2013-05-23 11:52:00,48.7,45.7,30.12,West,264,4.0,13.0,89,0.00,,,0.07,meteohub,2013-05-23 16:52:00,
2013-05-23 11:57:00,48.9,45.1,30.12,West,281,11.0,13.0,87,0.00,,,0.07,meteohub,2013-05-23 16:57:00,
2013-05-23 12:02:00,49.1,45.3,30.12,West,280,4.0,13.0,87,0.00,,,0.07,meteohub,2013-05-23 17:02:00,
2013-05-23 12:07:00,49.6,45.9,30.12,West,267,2.0,13.0,87,0.00,,,0.07,meteohub,2013-05-23 17:07:00,
2013-05-23 12:12:00,49.3,45.3,30.12,West,263,11.0,13.0,86,0.00,,,0.07,meteohub,2013-05-23 17:12:00,
2013-05-23 12:17:00,49.1,44.8,30.12,WNW,282,7.0,13.0,85,0.00,,,0.07,meteohub,2013-05-23 17:17:00,
2013-05-23 12:22:00,48.9,44.6,30.12,WNW,290,4.0,14.0,85,0.00,,,0.07,meteohub,2013-05-23 17:22:00,
2013-05-23 12:27:00,49.3,45.5,30.12,West,267,6.0,14.0,87,0.00,,,0.07,meteohub,2013-05-23 17:27:00,
2013-05-23 12:32:00,49.5,45.5,30.12,WNW,296,1.0,12.0,86,0.00,,,0.07,meteohub,2013-05-23 17:32:00,
2013-05-23 12:37:00,49.8,45.5,30.13,WNW,282,14.0,14.0,85,0.00,,,0.07,meteohub,2013-05-23 17:37:00,
2013-05-23 12:42:00,50.2,46.2,30.13,West,275,4.0,16.0,86,0.00,,,0.07,meteohub,2013-05-23 17:42:00,
2013-05-23 12:47:00,50.2,45.9,30.14,NW,323,4.0,16.0,85,0.00,,,0.07,meteohub,2013-05-23 17:47:00,
2013-05-23 12:52:00,50.0,45.3,30.14,West,269,5.0,16.0,84,0.00,,,0.07,meteohub,2013-05-23 17:52:00,
2013-05-23 12:57:00,50.0,45.3,30.14,WNW,283,9.0,9.0,84,0.00,,,0.07,meteohub,2013-05-23 17:57:00,
2013-05-23 13:02:00,50.0,44.8,30.14,West,279,11.0,14.0,82,0.00,,,0.07,meteohub,2013-05-23 18:02:00,
2013-05-23 13:07:00,50.2,45.1,30.14,WNW,290,2.0,14.0,83,0.00,,,0.07,meteohub,2013-05-23 18:07:00,
2013-05-23 13:12:00,50.5,45.5,30.15,WNW,284,5.0,12.0,83,0.00,,,0.07,meteohub,2013-05-23 18:12:00,
2013-05-23 13:17:00,50.5,45.5,30.15,WNW,285,4.0,14.0,83,0.00,,,0.07,meteohub,2013-05-23 18:17:00,
2013-05-23 13:22:00,50.5,45.0,30.15,WSW,244,4.0,14.0,81,0.00,,,0.07,meteohub,2013-05-23 18:22:00,
2013-05-23 13:27:00,50.5,45.3,30.15,WSW,248,6.0,14.0,82,0.00,,,0.07,meteohub,2013-05-23 18:27:00,
2013-05-23 13:32:00,50.5,45.0,30.16,West,266,5.0,11.0,81,0.00,,,0.07,meteohub,2013-05-23 18:32:00,
2013-05-23 13:37:00,50.5,45.3,30.15,West,270,3.0,11.0,82,0.00,,,0.07,meteohub,2013-05-23 18:37:00,
2013-05-23 13:42:00,50.9,45.3,30.15,WNW,282,8.0,11.0,81,0.00,,,0.07,meteohub,2013-05-23 18:42:00,
2013-05-23 13:47:00,51.1,45.5,30.16,West,277,3.0,10.0,81,0.00,,,0.07,meteohub,2013-05-23 18:47:00,
2013-05-23 13:52:00,51.3,45.7,30.16,NE,35,9.0,11.0,81,0.00,,,0.07,meteohub,2013-05-23 18:52:00,
2013-05-23 13:57:00,51.8,45.9,30.16,WNW,291,1.0,11.0,80,0.00,,,0.07,meteohub,2013-05-23 18:57:00,
2013-05-23 14:02:00,51.8,45.9,30.16,WNW,284,5.0,11.0,80,0.00,,,0.07,meteohub,2013-05-23 19:02:00,
2013-05-23 14:07:00,51.6,45.7,30.16,East,96,2.0,9.0,80,0.00,,,0.07,meteohub,2013-05-23 19:07:00,
2013-05-23 14:12:00,52.3,46.8,30.16,NNW,334,1.0,9.0,81,0.00,,,0.07,meteohub,2013-05-23 19:12:00,
2013-05-23 14:17:00,52.5,45.9,30.17,WSW,245,2.0,9.0,78,0.00,,,0.07,meteohub,2013-05-23 19:17:00,
2013-05-23 14:22:00,52.7,46.0,30.17,WNW,298,4.0,11.0,78,0.00,,,0.07,meteohub,2013-05-23 19:22:00,
2013-05-23 14:27:00,53.4,45.0,30.17,NNE,26,1.0,11.0,73,0.00,,,0.07,meteohub,2013-05-23 19:27:00,
2013-05-23 14:32:00,54.1,45.3,30.17,North,5,0.0,9.0,72,0.00,,,0.07,meteohub,2013-05-23 19:32:00,
2013-05-23 14:37:00,54.7,45.1,30.17,West,268,7.0,10.0,70,0.00,,,0.07,meteohub,2013-05-23 19:37:00,
2013-05-23 14:42:00,54.9,46.0,30.17,SW,223,2.0,11.0,72,0.00,,,0.07,meteohub,2013-05-23 19:42:00,
2013-05-23 14:47:00,54.9,45.3,30.16,WNW,299,0.0,11.0,70,0.00,,,0.07,meteohub,2013-05-23 19:47:00,
2013-05-23 14:52:00,55.4,46.9,30.17,West,276,4.0,10.0,73,0.00,,,0.07,meteohub,2013-05-23 19:52:00,
2013-05-23 14:57:00,56.1,45.3,30.16,NNW,336,1.0,9.0,67,0.00,,,0.07,meteohub,2013-05-23 19:57:00,
2013-05-23 15:02:00,56.7,46.2,30.17,West,262,4.0,9.0,68,0.00,,,0.07,meteohub,2013-05-23 20:02:00,
2013-05-23 15:07:00,57.0,45.3,30.17,NNE,30,1.0,9.0,65,0.00,,,0.07,meteohub,2013-05-23 20:07:00,
2013-05-23 15:12:00,56.5,44.8,30.17,NW,304,0.0,10.0,65,0.00,,,0.07,meteohub,2013-05-23 20:12:00,
2013-05-23 15:17:00,56.5,45.3,30.17,North,10,4.0,11.0,66,0.00,,,0.07,meteohub,2013-05-23 20:17:00,
2013-05-23 15:22:00,56.3,45.9,30.17,NE,46,0.0,13.0,68,0.00,,,0.07,meteohub,2013-05-23 20:22:00,
2013-05-23 15:27:00,56.1,45.3,30.17,North,0,10.0,13.0,67,0.00,,,0.07,meteohub,2013-05-23 20:27:00,
2013-05-23 15:32:00,56.5,45.3,30.17,SW,234,2.0,13.0,66,0.00,,,0.07,meteohub,2013-05-23 20:32:00,
2013-05-23 15:37:00,56.1,45.7,30.17,WNW,302,0.0,10.0,68,0.00,,,0.07,meteohub,2013-05-23 20:37:00,
2013-05-23 15:42:00,56.1,45.7,30.17,North,350,0.0,10.0,68,0.00,,,0.07,meteohub,2013-05-23 20:42:00,
2013-05-23 15:47:00,56.1,45.3,30.18,NNW,340,0.0,10.0,67,0.00,,,0.07,meteohub,2013-05-23 20:47:00,
2013-05-23 15:52:00,55.9,45.5,30.18,WNW,282,4.0,12.0,68,0.00,,,0.07,meteohub,2013-05-23 20:52:00,
2013-05-23 15:57:00,55.9,45.9,30.18,WSW,250,9.0,12.0,69,0.00,,,0.07,meteohub,2013-05-23 20:57:00,
2013-05-23 16:02:00,55.6,45.1,30.19,NNW,330,5.0,11.0,68,0.00,,,0.07,meteohub,2013-05-23 21:02:00,
2013-05-23 16:07:00,55.2,44.8,30.19,NW,317,4.0,11.0,68,0.00,,,0.07,meteohub,2013-05-23 21:07:00,
2013-05-23 16:12:00,55.2,46.4,30.19,NNW,344,4.0,10.0,72,0.00,,,0.07,meteohub,2013-05-23 21:12:00,
2013-05-23 16:17:00,55.2,45.7,30.19,NW,319,3.0,9.0,70,0.00,,,0.07,meteohub,2013-05-23 21:17:00,
2013-05-23 16:22:00,55.2,45.7,30.19,SW,221,0.0,10.0,70,0.00,,,0.07,meteohub,2013-05-23 21:22:00,
2013-05-23 16:27:00,55.2,46.0,30.20,NW,314,0.0,10.0,71,0.00,,,0.07,meteohub,2013-05-23 21:27:00,
2013-05-23 16:32:00,55.4,46.9,30.20,North,5,3.0,10.0,73,0.00,,,0.07,meteohub,2013-05-23 21:32:00,
2013-05-23 16:37:00,55.0,46.2,30.20,NNE,32,0.0,5.0,72,0.00,,,0.07,meteohub,2013-05-23 21:37:00,
2013-05-23 16:42:00,54.7,46.2,30.20,ESE,107,0.0,5.0,73,0.00,,,0.07,meteohub,2013-05-23 21:42:00,
2013-05-23 16:47:00,54.5,46.4,30.20,ENE,78,0.0,5.0,74,0.00,,,0.07,meteohub,2013-05-23 21:47:00,
2013-05-23 16:52:00,54.7,46.2,30.21,East,83,0.0,5.0,73,0.00,,,0.07,meteohub,2013-05-23 21:52:00,
2013-05-23 16:57:00,54.7,45.9,30.21,NE,42,0.0,4.0,72,0.00,,,0.07,meteohub,2013-05-23 21:57:00,
2013-05-23 17:02:00,54.5,46.0,30.22,North,355,0.0,5.0,73,0.00,,,0.07,meteohub,2013-05-23 22:02:00,
2013-05-23 17:07:00,54.1,45.7,30.22,East,80,0.0,5.0,73,0.00,,,0.07,meteohub,2013-05-23 22:07:00,
2013-05-23 17:12:00,54.3,46.6,30.22,ENE,69,0.0,5.0,75,0.00,,,0.07,meteohub,2013-05-23 22:12:00,
2013-05-23 17:17:00,54.7,46.2,30.22,North,355,0.0,5.0,73,0.00,,,0.07,meteohub,2013-05-23 22:17:00,
2013-05-23 17:22:00,55.0,46.6,30.22,NNE,31,0.0,5.0,73,0.00,,,0.07,meteohub,2013-05-23 22:22:00,
2013-05-23 17:27:00,55.2,46.0,30.22,SSE,148,0.0,5.0,71,0.00,,,0.07,meteohub,2013-05-23 22:27:00,
2013-05-23 17:32:00,55.2,46.4,30.22,East,79,0.0,5.0,72,0.00,,,0.07,meteohub,2013-05-23 22:32:00,
2013-05-23 17:37:00,55.2,46.8,30.22,ENE,76,0.0,3.0,73,0.00,,,0.07,meteohub,2013-05-23 22:37:00,
2013-05-23 17:42:00,55.4,46.2,30.23,ENE,77,0.0,1.0,71,0.00,,,0.07,meteohub,2013-05-23 22:42:00,
2013-05-23 17:47:00,55.4,46.6,30.23,East,83,1.0,0.0,72,0.00,,,0.07,meteohub,2013-05-23 22:47:00,
2013-05-23 17:52:00,55.0,45.9,30.23,East,97,0.0,2.0,71,0.00,,,0.07,meteohub,2013-05-23 22:52:00,
2013-05-23 17:57:00,54.5,45.7,30.23,East,95,0.0,6.0,72,0.00,,,0.07,meteohub,2013-05-23 22:57:00,
2013-05-23 18:02:00,54.1,45.7,30.23,SE,126,0.0,6.0,73,0.00,,,0.07,meteohub,2013-05-23 23:02:00,
2013-05-23 18:07:00,54.0,46.2,30.24,SSE,148,0.0,6.0,75,0.00,,,0.07,meteohub,2013-05-23 23:07:00,
2013-05-23 18:12:00,54.0,46.2,30.24,SE,128,0.0,5.0,75,0.00,,,0.07,meteohub,2013-05-23 23:12:00,
2013-05-23 18:17:00,53.6,46.2,30.24,ESE,103,0.0,5.0,76,0.00,,,0.07,meteohub,2013-05-23 23:17:00,
2013-05-23 18:22:00,53.6,46.2,30.25,ESE,115,0.0,2.0,76,0.00,,,0.07,meteohub,2013-05-23 23:22:00,
2013-05-23 18:27:00,53.2,44.8,30.25,East,87,0.0,2.0,73,0.00,,,0.07,meteohub,2013-05-23 23:27:00,
2013-05-23 18:32:00,53.1,45.3,30.25,SE,143,0.0,2.0,75,0.00,,,0.07,meteohub,2013-05-23 23:32:00,
2013-05-23 18:37:00,52.9,45.1,30.25,South,174,0.0,2.0,75,0.00,,,0.07,meteohub,2013-05-23 23:37:00,
2013-05-23 18:42:00,52.9,45.1,30.25,North,0,6.0,6.0,75,0.00,,,0.07,meteohub,2013-05-23 23:42:00,
2013-05-23 18:47:00,52.9,44.1,30.26,East,88,1.0,6.0,72,0.00,,,0.07,meteohub,2013-05-23 23:47:00,
2013-05-23 18:52:00,52.5,44.4,30.26,NNW,336,0.0,6.0,74,0.00,,,0.07,meteohub,2013-05-23 23:52:00,
2013-05-23 18:57:00,52.2,44.1,30.27,ENE,78,0.0,6.0,74,0.00,,,0.07,meteohub,2013-05-23 23:57:00,
2013-05-23 19:02:00,52.0,43.5,30.27,NE,35,0.0,4.0,73,0.00,,,0.07,meteohub,2013-05-24 00:02:00,
2013-05-23 19:07:00,51.3,43.3,30.27,East,94,0.0,5.0,74,0.00,,,0.00,meteohub,2013-05-24 00:07:00,
2013-05-23 19:12:00,50.9,42.6,30.27,ENE,58,0.0,5.0,73,0.00,,,0.00,meteohub,2013-05-24 00:12:00,
2013-05-23 19:17:00,50.5,42.3,30.27,SE,132,0.0,5.0,73,0.00,,,0.00,meteohub,2013-05-24 00:17:00,
2013-05-23 19:22:00,50.2,41.9,30.27,ESE,118,0.0,5.0,73,0.00,,,0.00,meteohub,2013-05-24 00:22:00,
2013-05-23 19:27:00,49.8,41.9,30.27,WNW,291,1.0,5.0,74,0.00,,,0.00,meteohub,2013-05-24 00:27:00,
2013-05-23 19:32:00,49.6,41.7,30.28,East,98,1.0,5.0,74,0.00,,,0.00,meteohub,2013-05-24 00:32:00,
2013-05-23 19:37:00,49.3,41.4,30.28,ENE,67,0.0,5.0,74,0.00,,,0.00,meteohub,2013-05-24 00:37:00,
2013-05-23 19:42:00,48.9,41.0,30.28,ENE,65,0.0,5.0,74,0.00,,,0.00,meteohub,2013-05-24 00:42:00,
2013-05-23 19:47:00,48.6,41.4,30.28,ENE,63,0.0,4.0,76,0.00,,,0.00,meteohub,2013-05-24 00:47:00,
2013-05-23 19:52:00,48.4,41.2,30.29,ENE,59,0.0,4.0,76,0.00,,,0.00,meteohub,2013-05-24 00:52:00,
2013-05-23 19:57:00,48.0,41.2,30.29,ENE,65,0.0,4.0,77,0.00,,,0.00,meteohub,2013-05-24 00:57:00,
2013-05-23 20:03:00,47.8,40.6,30.29,NNE,26,0.0,2.0,76,0.00,,,0.00,meteohub,2013-05-24 01:03:00,
2013-05-23 20:08:00,47.7,40.5,30.29,NE,46,1.0,2.0,76,0.00,,,0.00,meteohub,2013-05-24 01:08:00,
2013-05-23 20:13:00,47.1,39.9,30.29,ENE,61,0.0,5.0,76,0.00,,,0.00,meteohub,2013-05-24 01:13:00,
2013-05-23 20:18:00,46.8,39.9,30.29,NE,46,3.0,5.0,77,0.00,,,0.00,meteohub,2013-05-24 01:18:00,
2013-05-23 20:23:00,46.6,39.4,30.29,ENE,67,0.0,5.0,76,0.00,,,0.00,meteohub,2013-05-24 01:23:00,
2013-05-23 20:28:00,46.2,39.0,30.29,NE,46,0.0,5.0,76,0.00,,,0.00,meteohub,2013-05-24 01:28:00,
2013-05-23 20:33:00,45.9,39.0,30.29,NNE,28,0.0,5.0,77,0.00,,,0.00,meteohub,2013-05-24 01:33:00,
2013-05-23 20:38:00,45.7,39.2,30.30,NNE,26,0.0,4.0,78,0.00,,,0.00,meteohub,2013-05-24 01:38:00,
2013-05-23 20:43:00,45.3,38.8,30.30,East,96,0.0,3.0,78,0.00,,,0.00,meteohub,2013-05-24 01:43:00,
2013-05-23 20:48:00,45.1,39.0,30.30,ENE,63,0.0,3.0,79,0.00,,,0.00,meteohub,2013-05-24 01:48:00,
2013-05-23 20:53:00,45.0,38.8,30.30,NE,56,0.0,3.0,79,0.00,,,0.00,meteohub,2013-05-24 01:53:00,
2013-05-23 20:58:00,44.6,38.1,30.30,ENE,74,1.0,2.0,78,0.00,,,0.00,meteohub,2013-05-24 01:58:00,
2013-05-23 21:03:00,44.4,37.9,30.31,NNE,31,0.0,5.0,78,0.00,,,0.00,meteohub,2013-05-24 02:03:00,
2013-05-23 21:08:00,44.1,37.6,30.31,ESE,120,0.0,6.0,78,0.00,,,0.00,meteohub,2013-05-24 02:08:00,
2013-05-23 21:13:00,44.1,37.9,30.31,NE,48,0.0,6.0,79,0.00,,,0.00,meteohub,2013-05-24 02:13:00,
2013-05-23 21:18:00,43.9,37.4,30.31,ENE,61,0.0,6.0,78,0.00,,,0.00,meteohub,2013-05-24 02:18:00,
2013-05-23 21:23:00,43.5,37.4,30.31,NNW,342,0.0,4.0,79,0.00,,,0.00,meteohub,2013-05-24 02:23:00,
2013-05-23 21:28:00,43.3,37.2,30.32,NNE,22,0.0,6.0,79,0.00,,,0.00,meteohub,2013-05-24 02:28:00,
2013-05-23 21:34:00,43.3,37.2,30.32,NE,53,0.0,6.0,79,0.00,,,0.00,meteohub,2013-05-24 02:34:00,
2013-05-23 21:39:00,43.2,37.4,30.33,NE,55,0.0,6.0,80,0.00,,,0.00,meteohub,2013-05-24 02:39:00,
2013-05-23 21:44:00,43.0,37.2,30.33,NNE,19,0.0,5.0,80,0.00,,,0.00,meteohub,2013-05-24 02:44:00,
2013-05-23 21:49:00,42.6,36.9,30.33,ENE,73,0.0,5.0,80,0.00,,,0.00,meteohub,2013-05-24 02:49:00,
2013-05-23 21:54:00,42.6,37.2,30.33,North,11,0.0,5.0,81,0.00,,,0.00,meteohub,2013-05-24 02:54:00,
2013-05-23 21:59:00,42.3,36.5,30.33,NE,55,0.0,5.0,80,0.00,,,0.00,meteohub,2013-05-24 02:59:00,
2013-05-23 22:04:00,42.3,36.9,30.33,North,5,0.0,5.0,81,0.00,,,0.00,meteohub,2013-05-24 03:04:00,
2013-05-23 22:09:00,42.1,37.0,30.34,North,355,0.0,4.0,82,0.00,,,0.00,meteohub,2013-05-24 03:09:00,
2013-05-23 22:14:00,41.9,37.0,30.34,North,5,0.0,4.0,83,0.00,,,0.00,meteohub,2013-05-24 03:14:00,
2013-05-23 22:19:00,41.7,36.9,30.34,NE,43,0.0,3.0,83,0.00,,,0.00,meteohub,2013-05-24 03:19:00,
2013-05-23 22:24:00,41.5,36.7,30.34,ENE,58,0.0,1.0,83,0.00,,,0.00,meteohub,2013-05-24 03:24:00,
2013-05-23 22:29:00,41.5,37.0,30.34,ENE,63,1.0,6.0,84,0.00,,,0.00,meteohub,2013-05-24 03:29:00,
2013-05-23 22:34:00,41.4,36.9,30.34,East,80,0.0,6.0,84,0.00,,,0.00,meteohub,2013-05-24 03:34:00,
2013-05-23 22:39:00,41.2,36.5,30.34,ENE,74,0.0,6.0,83,0.00,,,0.00,meteohub,2013-05-24 03:39:00,
2013-05-23 22:44:00,41.2,36.7,30.34,ENE,69,0.0,5.0,84,0.00,,,0.00,meteohub,2013-05-24 03:44:00,
2013-05-23 22:49:00,41.2,36.7,30.34,NE,53,0.0,5.0,84,0.00,,,0.00,meteohub,2013-05-24 03:49:00,
2013-05-23 22:54:00,41.0,36.5,30.35,NE,44,1.0,5.0,84,0.00,,,0.00,meteohub,2013-05-24 03:54:00,
2013-05-23 22:59:00,41.0,36.3,30.35,ESE,103,0.0,7.0,83,0.00,,,0.00,meteohub,2013-05-24 03:59:00,
2013-05-23 23:01:00,41.0,36.3,30.35,ESE,103,0.0,7.0,83,0.00,,,0.00,meteohub,2013-05-24 04:01:00,
2013-05-23 23:02:00,41.0,36.3,30.35,NNE,25,1.0,7.0,83,0.00,,,0.00,meteohub,2013-05-24 04:02:00,
2013-05-23 23:04:00,40.8,36.1,30.35,NE,52,0.0,7.0,83,0.00,,,0.00,meteohub,2013-05-24 04:04:00,
2013-05-23 23:05:00,40.8,36.1,30.35,ENE,65,0.0,7.0,83,0.00,,,0.00,meteohub,2013-05-24 04:05:00,
2013-05-23 23:06:00,40.8,36.1,30.35,NE,49,1.0,7.0,83,0.00,,,0.00,meteohub,2013-05-24 04:06:00,
2013-05-23 23:11:00,40.8,36.1,30.35,ENE,63,5.0,5.0,83,0.00,,,0.00,meteohub,2013-05-24 04:11:00,
2013-05-23 23:16:00,40.8,36.1,30.36,East,91,0.0,7.0,83,0.00,,,0.00,meteohub,2013-05-24 04:16:00,
2013-05-23 23:21:00,40.6,36.0,30.36,NE,34,1.0,7.0,83,0.00,,,0.00,meteohub,2013-05-24 04:21:00,
2013-05-23 23:26:00,40.6,36.0,30.36,ESE,108,0.0,7.0,83,0.00,,,0.00,meteohub,2013-05-24 04:26:00,
2013-05-23 23:31:00,40.6,36.1,30.36,NE,34,1.0,4.0,84,0.00,,,0.00,meteohub,2013-05-24 04:31:00,
2013-05-23 23:36:00,40.5,35.8,30.36,North,355,0.0,5.0,83,0.00,,,0.00,meteohub,2013-05-24 04:36:00,
2013-05-23 23:41:00,40.5,35.8,30.36,ENE,59,2.0,5.0,83,0.00,,,0.00,meteohub,2013-05-24 04:41:00,
2013-05-23 23:46:00,40.6,36.0,30.37,NE,53,0.0,6.0,83,0.00,,,0.00,meteohub,2013-05-24 04:46:00,
2013-05-23 23:51:00,40.6,36.0,30.37,NE,41,2.0,6.0,83,0.00,,,0.00,meteohub,2013-05-24 04:51:00,
2013-05-23 23:56:00,40.6,35.6,30.37,ESE,116,0.0,7.0,82,0.00,,,0.00,meteohub,2013-05-24 04:56:00,